Location: Namasale
(1.5000°N, 32.6167°E)
Time: 19:14:23
(UTC+00:00)

Courier 1B - Pass Details

Date: 22 April 2021
Orbit: 962 x 1209 km, 28.3° (Epoch: 10 May)

Event Time Altitude Azimuth Distance (km) Brightness Sun altitude
Rises 04:10:58 0° 224° (SW) 4,088 10.2 5.9°
Reaches altitude 10° 04:14:08 10° 216° (SW) 3,103 9.7 6.7°
Maximum altitude 04:21:05 36° 152° (SSE) 1,726 9.1 8.4°
Drops below altitude 10° 04:27:41 10° 87° (E) 2,953 12.5 10.0°
Sets 04:30:36 0° 79° (E) 3,869 12.9 10.7°
